User: anonymous   Login
Location: Charbonni�res
(45.9952°N, 2.9982°E)
Time: 06:16:24
(UTC+00:00)
Language:

FALCON 9 DEB - Orbit

View from above orbital plane
View from above orbital plane
View from above satellite
View from above satellite

Ground track
Ground track

The orbit data is extracted from the following two-line orbital elements,

1 46085U 20055BL  21057.60464700  .00016160  00000-0  19077-3 0  9998
2 46085  53.0130  21.0171 0008977 234.6388 125.3786 15.61488641 36324
Epoch (UTC): 26 February 2021 14:30:41
Eccentricity: 0.0008977
inclination: 53.0130°
perigee height: 377 km
apogee height: 389 km
right ascension of ascending node: 21.0171°
argument of perigee: 234.6388°
revolutions per day: 15.61488641
mean anomaly at epoch: 125.3786°
orbit number at epoch: 3632

The dashed part of the orbit path shows where the satellite is in the earth's shadow,  

DLR